Regional Weather Roundup
Issued by NWS Mobile, AL

Home | Current Version | Previous Version | Text Only | Print | Product List | Glossary On
Versions: 1 2 3 4 5 6 7 8 9 10 11 12 13 14 15 16 17 18 19 20 21 22 23 24 25 26 27 28 29 30 31 32 33 34 35 36 37 38 39 40 41 42 43 44 45 46 47 48 49 50
000
ASUS44 KMOB 241812
RWRMOB
REGIONAL WEATHER ROUNDUP
NATIONAL WEATHER SERVICE MOBILE AL
100 PM CDT SUN JUL 24 2016

NOTE: "FAIR" INDICATES FEW OR NO CLOUDS BELOW 12,000 FEET WITH NO
      SIGNIFICANT WEATHER AND/OR OBSTRUCTIONS TO VISIBILITY.

  * THESE STATIONS ARE PART OF THE UNIVERSITY OF SOUTH ALABAMA
    MESONET AND ARE NOT UNDER NWS OR FAA QUALITY CONTROL.

ALZ061>064-241900-
COASTAL ALABAMA

CITY           SKY/WX    TMP DP  RH WIND       PRES   REMARKS
MOBILE REG APT PTSUNNY   90  72  55 VRB7      30.01F HX  97
6HR MIN TEMP:  78; 6HR MAX TEMP:  91;

BROOKLEY FIELD PTSUNNY   89  77  67 SE6       30.01F HX 101
6HR MIN TEMP:  77; 6HR MAX TEMP:  89; 6HR PCP:  0.01;

USA CAMPUS*    NOT AVBL
DOG RIVER*     NOT AVBL


CITY           SKY/WX    TMP DP  RH WIND       PRES   REMARKS
MOUNT VERNON*  NOT AVBL
SARALAND*      NOT AVBL
BAY MINETTE*   NOT AVBL
LOXLEY*        NOT AVBL
ROBERTSDALE*   NOT AVBL
FAIRHOPE*      NOT AVBL
ELBERTA*       NOT AVBL
FOLEY*         NOT AVBL
GRAND BAY*     NOT AVBL
DAUPHIN ISLND* NOT AVBL
BON SCOUR NWR* NOT AVBL
GULF SHORES    PTSUNNY   87  76  70 SE8       30.00F HX  97

$$

ALZ051>060-241900-
INTERIOR SOUTHWEST AND SOUTH CENTRAL ALABAMA

CITY           SKY/WX    TMP DP  RH WIND       PRES   REMARKS
GREENVILLE     MOSUNNY   92  70  48 VRB5      30.02F HX  97
6HR MIN TEMP:  77; 6HR MAX TEMP:  94;

EVERGREEN      MOSUNNY   90  73  57 NE5       30.02F HX  98
6HR MIN TEMP:  74; 6HR MAX TEMP:  91;

CASTLEBERRY*   NOT AVBL
ATMORE*        NOT AVBL
DIXIE*         NOT AVBL
ANDALUSIA/OPP  MOSUNNY   95  74  50 E8        30.02F HX 105
6HR MIN TEMP:  78; 6HR MAX TEMP:  95;

ANDALUSIA*     NOT AVBL
FLORALA APT    MOSUNNY   91  73  55 E7        30.03F HX  99
6HR MIN TEMP:  75; 6HR MAX TEMP:  91;

FLORALA*       NOT AVBL

$$

FLZ001>006-241900-
WESTERN FLORIDA PANHANDLE

CITY           SKY/WX    TMP DP  RH WIND       PRES   REMARKS
PENSACOLA      LGT RAIN  86  75  69 E8        30.01S HX  95
6HR MIN TEMP:  80; 6HR MAX TEMP:  90; 6HR PCP: TRACE;

NAS PENSACOLA  PTSUNNY   93  76  57 SE14      29.99F HX 105
6HR MIN TEMP:  78; 6HR MAX TEMP:  93; 6HR PCP: TRACE;

MILTON           N/A    N/A N/A N/A MISG      30.00F
WHTNG S FIELD  NOT AVBL


CITY           SKY/WX    TMP DP  RH WIND       PRES   REMARKS
WALNUT HILL*   NOT AVBL
JAY*           NOT AVBL
DUKE FIELD     MOSUNNY   90  74  59 VRB6      29.99F HX  99
CRESTVIEW      MOSUNNY   94  72  48 VRB6      30.01F HX 102
6HR MIN TEMP:  75; 6HR MAX TEMP:  95;

VALPARAISO     PTSUNNY   91  74  57 SE8       30.00F HX 100
6HR MIN TEMP:  78; 6HR MAX TEMP:  91;

DESTIN         MOSUNNY   92  79  65 S9        30.00F HX 108
6HR MIN TEMP:  82; 6HR MAX TEMP:  92;


$$

MSZ076-079-241900-
INTERIOR SOUTHEAST MISSISSIPPI

CITY           SKY/WX    TMP DP  RH WIND       PRES   REMARKS
LEAKESVILLE*   NOT AVBL
AGRICOLA*      NOT AVBL

$$

MARINE OBSERVATIONS

STATION/POSITION TIME  TEMP    WIND        PRES    WAVE
                       AIR SEA DIR/SP/G            HT/PER
                 (UTC) (F)     (DEG/KT/KT) (MB)    (FT/S)
PASCAGOULA       1700   85     230/  1/  4 1015.9F
PETIT BOIS ISLND 1700   86     180/  3/  5 1016.8F
GRAND BAY        1645   85     170/  6     1017.0F
KATRINA CUT      1700   85     160/  4     1016.9S
CEDAR POINT      1700   87     120/  4     1016.3S
E DAUPHIN ISLAND 1800   86     150/  8/  9 1015.7F
MIDDLE BAY LIGHT 1700   86     170/  6     1015.9F
USCG MOBILE BAY  1700   87 86  160/  2/  4 1016.8F
STATE DOCKS      1700   85 87              1016.4S
MEAHER PARK      1700   85     250/  6     1015.9S
WEEKS BAY        1600   89                   N/A
FORT MORGAN      1700   87     150/  8/ 10 1015.8F
12 S ORANGE BCH  1750   86 90  120/  6/  8 1016.3F   1
PENSACOLA BAY    1700   90 89  160/  4/  6 1016.4F
64 S DAUPHIN ISL 1800   84 88  300/  8/ 10 1015.5F
67 S FORT MORGAN 1730   84        CALM     1016.3S

$$

SELECTED LOCATIONS ACROSS THE REGION

CITY           SKY/WX    TMP DP  RH WIND       PRES   REMARKS
NEW ORLEANS    CLOUDY    89  77  67 S6        29.98F HX 101
GULFPORT       CLOUDY    89  77  67 SE13      29.98F HX 101
PASCAGOULA AP  LGT RAIN  78  78 100 SW3       30.00F FOG
PASCAGOULA*    NOT AVBL
HATTIESBURG    MOSUNNY   92  73  53 VRB3      30.00F HX 100
LAUREL         MOSUNNY   90  73  58 CALM      30.02F HX  98
MERIDIAN       MOSUNNY   95  73  48 S8        30.00F HX 104
JACKSON        PTSUNNY   91  74  57 CALM      29.99F HX 100
MONTGOMERY     SUNNY     93  72  50 S6        30.03F HX 101
TROY           MOSUNNY   90  74  59 S7        30.04F HX  99
KINSTON*       NOT AVBL
GENEVA*        NOT AVBL
ASHFORD*       NOT AVBL
DOTHAN         MOSUNNY   90  73  57 SE6       30.07F HX  98
PANAMA CITY    PTSUNNY   89  74  60 E6        30.00F HX  98

$$




USA.gov is the U.S. government's official web portal to all federal, state and local government web resources and services.